ABOUT US
vACC Philippines is a recognized member of the VATSIM network. We are dedicated to enchancing the online experience of both local and international virtual pilots. Mandated to provide professional and realistic air traffic operations.

vACC Philippines aims to provide the most realistic air traffic system simulation service that is close to the real thing as possible when flying on the VATSIM network.


METARS

RPLL 270800Z 26009KT 9999 FEW023CB SCT025 BKN250 31/25 Q1007 NOSIG RMK A2974 CB N


RPVM 270800Z 08006KT 9999 FEW018CB 31/23 Q1008 RETS RMK A2974 NE SW-W


RPMD 270800Z 08005KT 040V110 9999 FEW016 BKN090 BKN260 29/24 Q1008 RMK A2977



AIRFIELDS COVERED


Manila (RPLL)

Subic Bay (RPLB)

Mactan-Cebu (RPVM)

Clark (RPLC)

Laoag (RPLI)


Davao (RPMD)


Bacolod (RPVB)


Zamboanga (RPMZ)


General Santos (RPMR)


Iloilo (RPVI)


Kalibo (RPVK)


Legazpi (RPLP)


Puerto Princesa (RPVP)